Regional Weather Roundup
Issued by NWS

Home | Current Version | Previous Version | Graphics & Text | Print | Product List | Glossary On
Versions: 1 2 3 4 5 6 7 8 9 10 11 12 13 14 15 16 17 18 19 20 21 22 23 24 25 26 27 28 29 30 31 32 33 34 35 36 37 38 39 40 41 42 43 44 45 46 47 48 49 50
000
ASUS43 KIND 300959
RWRIN

WEATHER ROUNDUP FOR INDIANA
NATIONAL WEATHER SERVICE INDIANAPOLIS IN
600 AM EDT TUE SEP 30 2014

NOTE: "FAIR" INDICATES FEW OR NO CLOUDS BELOW 12,000 FEET WITH NO
SIGNIFICANT WEATHER AND/OR OBSTRUCTIONS TO VISIBILITY.

* - STATION DOES NOT REPORT WEATHER SUCH AS PRECIPITATION OR FOG.

+ - STATION NOT QUALITY CONTROLLED BY THE NATIONAL WEATHER SERVICE.
    USE DATA WITH CAUTION...ESPECIALLY DEWPOINT AND RELATIVE
    HUMIDITY OBSERVATIONS.

INZ001>003-010>013-019-020-301100-
NORTHWEST INDIANA

CITY           SKY/WX    TMP DP  RH WIND       PRES   REMARKS
GARY /AIRPORT/ CLOUDY    55  48  76 N17       30.03S
VALPARAISO     NOT AVBL

$$

LMZ046-743>745-301100-
SOUTHERN LAKE MICHIGAN

STATION/POSITION TIME  TEMP WIND        PRES
                       AIR  DIR/SP/G
                 (UTC) (F)  (DEG/KT/KT) (MB)
MICHIGAN CITY    0900   54  350/ 22/ 27   N/A

$$

INZ004-005-014>016-021>024-301100-
NORTH CENTRAL INDIANA

CITY           SKY/WX    TMP DP  RH WIND       PRES   REMARKS
PERU/GRISSOM   CLOUDY    57  57 100 N13       29.96R
SOUTH BEND     NOT AVBL

$$

INZ006>009-017-018-025>027-301100-
NORTHEAST INDIANA

CITY           SKY/WX    TMP DP  RH WIND       PRES   REMARKS
ANGOLA *+      CLOUDY    54  52  94 N8        29.95S
FORT WAYNE     CLOUDY    59  56  89 NW12      29.94R

$$

INZ028-029-035-036-043>045-051>053-301100-
WEST CENTRAL INDIANA

CITY           SKY/WX    TMP DP  RH WIND       PRES   REMARKS
GREENCASTLE +  FOG       55  55 100 N3        29.95S VSB 1/2
LAFAYETTE      CLOUDY    56  52  86 N10       29.98R
TERRE HAUTE    CLEAR     58  55  90 N3        29.95R

$$

INZ030>032-037>040-046>048-054>057-064-065-301100-
CENTRAL INDIANA

CITY           SKY/WX    TMP DP  RH WIND       PRES   REMARKS
INDIANAPOLIS   FOG       57  55  93 N9        29.94R VSB 1
-EAGLE CREEK   FOG       59  57  93 N8        29.95R VSB 1
KOKOMO *+      CLOUDY    57  52  82 N13       29.97R
MT COMFORT *+  CLEAR     52  52 100 N6        29.96R
SHELBYVILLE    CLEAR     53  50  89 CALM      29.93S

$$

INZ033-034-041-042-049-050-058-059-301100-
EAST CENTRAL INDIANA

CITY           SKY/WX    TMP DP  RH WIND       PRES   REMARKS
MUNCIE         MOCLDY    57  55  93 NW6       29.94R FOG

$$

INZ060-061-067>069-081>083-085>088-301100-
SOUTHWEST INDIANA

CITY           SKY/WX    TMP DP  RH WIND       PRES   REMARKS
EVANSVILLE     CLEAR     58  55  90 CALM      29.94S

$$

INZ062-063-066-070>080-084-089>092-301100-
SOUTH CENTRAL AND SOUTHEAST INDIANA

CITY           SKY/WX    TMP DP  RH WIND       PRES   REMARKS
BLOOMINGTON    CLEAR     56  53  90 CALM      29.94S

$$



USA.gov is the U.S. government's official web portal to all federal, state and local government web resources and services.